• In Hungary
  • List of Countries
  • For 7 days
  • Water Temperature
  • Satellite Maps
  • Weather Map
  • News
  • Weather Widgets
  • user-avatar
    Login

    Hourly Weather Ust-Kyahta

    Today, 19 October, Thursday

    Time Temperature Precipitation Wind Pressure Humidity
    00:00 +3°C° 0 mm 1 mps 712 mmHg 86%
    01:00 +3°C° 0 mm 1 mps 712 mmHg 87%
    02:00 +2°C° 0 mm 1 mps 711 mmHg 88%
    03:00 +2°C° 0 mm 1 mps 711 mmHg 89%
    04:00 +2°C° 0 mm 1 mps 711 mmHg 89%
    05:00 +2°C° 0 mm 1 mps 711 mmHg 89%
    06:00 +2°C° 0 mm 1 mps 710 mmHg 89%
    07:00 +2°C° 0 mm 1 mps 710 mmHg 89%
    08:00 +4°C° 0 mm 1 mps 710 mmHg 80%
    09:00 +5°C° 0 mm 1 mps 710 mmHg 72%
    10:00 +7°C° 0 mm 1 mps 710 mmHg 63%
    11:00 +8°C° 0 mm 1 mps 710 mmHg 59%
    12:00 +9°C° 0 mm 1 mps 710 mmHg 56%
    13:00 +10°C° 0 mm 1 mps 710 mmHg 52%
    14:00 +10°C° 0 mm 1 mps 710 mmHg 55%
    15:00 +9°C° 0 mm 2 mps 710 mmHg 57%
    16:00 +8°C° 0 mm 2 mps 710 mmHg 59%
    17:00 +7°C° 0 mm 2 mps 711 mmHg 66%
    18:00 +5°C° 0 mm 2 mps 711 mmHg 72%
    19:00 +4°C° 0 mm 2 mps 712 mmHg 78%
    20:00 +4°C° 0 mm 1 mps 712 mmHg 80%
    21:00 +3°C° 0 mm 1 mps 713 mmHg 83%
    22:00 +3°C° 0 mm 1 mps 713 mmHg 86%
    23:00 +2°C° 0 mm 1 mps 714 mmHg 86%

    Tomorrow, 20 October, Friday

    Time Temperature Precipitation Wind Pressure Humidity
    00:00 +1°C° 0 mm 0 mps 714 mmHg 87%
    01:00 0°C° 0 mm 0 mps 714 mmHg 88%
    02:00 0°C° 0 mm 0 mps 714 mmHg 88%
    03:00 0°C° 0 mm 0 mps 714 mmHg 89%
    04:00 0°C° 0 mm 0 mps 714 mmHg 89%
    05:00 0°C° 0 mm 0 mps 714 mmHg 89%
    06:00 0°C° 0 mm 0 mps 715 mmHg 89%
    07:00 0°C° 0 mm 0 mps 715 mmHg 89%
    08:00 +3°C° 0 mm 1 mps 715 mmHg 81%
    09:00 +5°C° 0 mm 1 mps 715 mmHg 73%
    10:00 +7°C° 0 mm 1 mps 714 mmHg 65%
    11:00 +8°C° 0 mm 1 mps 714 mmHg 61%
    12:00 +9°C° 0 mm 1 mps 714 mmHg 58%
    13:00 +8°C° 0 mm 2 mps 713 mmHg 55%
    14:00 +9°C° 0 mm 1 mps 713 mmHg 58%
    15:00 +8°C° 0 mm 1 mps 713 mmHg 60%
    16:00 +8°C° 0 mm 1 mps 713 mmHg 63%
    17:00 +6°C° 0 mm 1 mps 713 mmHg 69%
    18:00 +5°C° 0 mm 1 mps 713 mmHg 74%
    19:00 +4°C° 0 mm 1 mps 713 mmHg 80%
    20:00 +3°C° 0 mm 1 mps 713 mmHg 81%
    21:00 +3°C° 0 mm 1 mps 713 mmHg 82%
    22:00 +2°C° 0 mm 1 mps 713 mmHg 83%
    23:00 +2°C° 0 mm 1 mps 713 mmHg 84%

    Day after tomorrow, 21 October, Saturday

    Time Temperature Precipitation Wind Pressure Humidity
    00:00 +2°C° 0 mm 1 mps 713 mmHg 84%
    01:00 +2°C° 0 mm 1 mps 713 mmHg 85%
    02:00 +2°C° 0 mm 1 mps 713 mmHg 85%
    03:00 +2°C° 0 mm 1 mps 713 mmHg 85%
    04:00 0°C° 0 mm 0 mps 713 mmHg 86%
    05:00 0°C° 0 mm 0 mps 713 mmHg 85%
    06:00 +1°C° 0 mm 0 mps 714 mmHg 84%
    07:00 +1°C° 0 mm 0 mps 714 mmHg 82%
    08:00 +2°C° 0 mm 0 mps 714 mmHg 75%
    09:00 +4°C° 0 mm 0 mps 715 mmHg 68%
    10:00 +5°C° 0 mm 0 mps 715 mmHg 61%
    11:00 +6°C° 0 mm 0 mps 715 mmHg 59%
    12:00 +7°C° 0 mm 0 mps 715 mmHg 56%
    13:00 +8°C° 0 mm 0 mps 715 mmHg 54%
    14:00 +7°C° 0 mm 0 mps 715 mmHg 57%
    15:00 +7°C° 0 mm 0 mps 714 mmHg 60%
    16:00 +7°C° 0 mm 0 mps 714 mmHg 64%
    17:00 +6°C° 0 mm 1 mps 715 mmHg 69%
    18:00 +5°C° 0 mm 1 mps 715 mmHg 73%
    19:00 +4°C° 0 mm 1 mps 715 mmHg 78%
    20:00 +4°C° 0 mm 1 mps 716 mmHg 80%
    21:00 +3°C° 0 mm 1 mps 716 mmHg 82%
    22:00 +2°C° 0 mm 2 mps 716 mmHg 84%
    23:00 +2°C° 0 mm 2 mps 716 mmHg 85%

    22 October, Sunday

    Time Temperature Precipitation Wind Pressure Humidity
    00:00 +2°C° 0 mm 2 mps 716 mmHg 87%
    01:00 +1°C° 0 mm 2 mps 716 mmHg 88%
    02:00 +1°C° 0 mm 2 mps 716 mmHg 89%
    03:00 +1°C° 0 mm 2 mps 716 mmHg 90%
    04:00 +1°C° 0 mm 2 mps 716 mmHg 90%
    05:00 +1°C° 0 mm 2 mps 716 mmHg 91%
    06:00 -1°C° 0 mm 2 mps 716 mmHg 91%
    07:00 -1°C° 0 mm 2 mps 716 mmHg 91%
    08:00 +2°C° 0 mm 3 mps 716 mmHg 82%
    09:00 +4°C° 0 mm 3 mps 715 mmHg 73%
    10:00 +6°C° 0 mm 4 mps 715 mmHg 64%
    11:00 +7°C° 0 mm 4 mps 715 mmHg 59%
    12:00 +8°C° 0 mm 4 mps 714 mmHg 54%
    13:00 +10°C° 0 mm 5 mps 713 mmHg 49%
    14:00 +10°C° 0 mm 4 mps 713 mmHg 52%
    15:00 +8°C° 0 mm 4 mps 713 mmHg 55%
    16:00 +9°C° 0 mm 3 mps 713 mmHg 59%
    17:00 +7°C° 0 mm 3 mps 713 mmHg 65%
    18:00 +5°C° 0 mm 3 mps 713 mmHg 71%
    19:00 +3°C° 0 mm 3 mps 713 mmHg 77%
    20:00 +4°C° 0 mm 2 mps 713 mmHg 79%
    21:00 +3°C° 0 mm 2 mps 713 mmHg 80%
    22:00 +3°C° 0 mm 2 mps 713 mmHg 81%
    23:00 +2°C° 0 mm 2 mps 713 mmHg 81%

    23 October, Monday

    Time Temperature Precipitation Wind Pressure Humidity
    00:00 +2°C° 0 mm 2 mps 713 mmHg 80%
    01:00 +2°C° 0 mm 2 mps 712 mmHg 80%
    02:00 +2°C° 0 mm 2 mps 712 mmHg 80%
    03:00 +1°C° 0 mm 2 mps 712 mmHg 80%
    04:00 +1°C° 0 mm 2 mps 712 mmHg 81%
    05:00 +2°C° 0 mm 1 mps 712 mmHg 80%
    06:00 +2°C° 0 mm 1 mps 712 mmHg 80%
    07:00 +2°C° 0 mm 1 mps 713 mmHg 80%
    08:00 +4°C° 0 mm 1 mps 713 mmHg 71%
    09:00 +6°C° 0 mm 1 mps 713 mmHg 62%
    10:00 +8°C° 0 mm 1 mps 713 mmHg 53%
    11:00 +9°C° 0 mm 1 mps 712 mmHg 50%
    12:00 +9°C° 0 mm 2 mps 712 mmHg 47%
    13:00 +10°C° 0 mm 2 mps 712 mmHg 43%
    14:00 +11°C° 0 mm 1 mps 712 mmHg 47%
    15:00 +10°C° 0 mm 1 mps 712 mmHg 51%
    16:00 +9°C° 0 mm 1 mps 712 mmHg 55%
    17:00 +8°C° 0 mm 1 mps 712 mmHg 61%
    18:00 +6°C° 0 mm 1 mps 712 mmHg 66%
    19:00 +5°C° 0 mm 1 mps 713 mmHg 72%
    20:00 +4°C° 0 mm 1 mps 713 mmHg 73%
    21:00 +4°C° 0 mm 1 mps 713 mmHg 75%
    22:00 +4°C° 0 mm 1 mps 713 mmHg 76%
    23:00 +3°C° 0 mm 1 mps 713 mmHg 78%

    24 October, Tuesday

    Time Temperature Precipitation Wind Pressure Humidity
    00:00 +3°C° 0 mm 1 mps 713 mmHg 79%
    01:00 +3°C° 0 mm 1 mps 713 mmHg 80%
    02:00 +3°C° 0 mm 1 mps 713 mmHg 81%
    03:00 +2°C° 0 mm 1 mps 713 mmHg 82%
    04:00 +2°C° 0 mm 1 mps 713 mmHg 83%
    05:00 +2°C° 0 mm 1 mps 714 mmHg 83%
    06:00 +2°C° 0 mm 1 mps 714 mmHg 83%
    07:00 +2°C° 0 mm 1 mps 714 mmHg 83%
    08:00 +4°C° 0 mm 1 mps 714 mmHg 74%
    09:00 +6°C° 0 mm 1 mps 714 mmHg 65%
    10:00 +8°C° 0 mm 1 mps 714 mmHg 56%
    11:00 +9°C° 0 mm 1 mps 714 mmHg 52%
    12:00 +10°C° 0 mm 1 mps 713 mmHg 48%
    13:00 +11°C° 0 mm 1 mps 713 mmHg 44%
    14:00 +11°C° 0 mm 1 mps 713 mmHg 48%
    15:00 +10°C° 0 mm 1 mps 713 mmHg 52%
    16:00 +9°C° 0 mm 1 mps 713 mmHg 56%
    17:00 +8°C° 0 mm 1 mps 713 mmHg 61%
    18:00 +6°C° 0 mm 1 mps 713 mmHg 65%
    19:00 +5°C° 0 mm 1 mps 713 mmHg 70%
    20:00 +5°C° 0 mm 1 mps 713 mmHg 71%
    21:00 +4°C° 0 mm 1 mps 713 mmHg 72%
    22:00 +4°C° 0 mm 1 mps 713 mmHg 73%
    23:00 +4°C° 0 mm 1 mps 712 mmHg 74%
    Show more